Tracking 20093 objects as of 14-Dec-2019
HD Live streaming from Space Station
objects crossing your sky now

FENGYUN 1C DEB

Track FENGYUN 1C DEB now!
10-day predictions


NORAD ID: 30347
Int'l Code: 1999-025ABJ
Perigee: 819.1 km
Apogee: 1,040.7 km
Inclination: 98.4 °
Period: 103.5 minutes
Semi major axis: 7300 km
RCS: 0.028 m2 (small)
Launch date: May 10, 1999
Source: People's Republic of China (PRC)
Launch site: Taiyaun Space Center, China (TSC)

Note: This is SATELLITE DEBRIS
aabbcc
Your satellite tracking list
Your tracking list is empty




NASA's NSSDC Master Catalog

Two Line Element Set (TLE):
1 30347U 99025ABJ 19347.92904414 -.00000004 +00000-0 +24899-4 0  9990
2 30347 098.3925 333.6985 0151722 348.0030 040.5178 13.91678614654802
Source of the keplerian elements: AFSPC